Location: Beuvrequen
(50.8014°N, 1.6652°E)
Time: 03:52:42
(UTC+00:00)

Cosmos 2344 - Pass Details

Date: 16 October 2021
Orbit: 1233 x 3009 km, 63.3° (Epoch: 28 November)

Event Time Altitude Azimuth Distance (km) Brightness Sun altitude
Rises 20:00:27 0° 315° (NW) 4,461 7.4 -29.0°
Reaches altitude 10° 20:03:02 10° 314° (NW) 3,609 6.8 -29.4°
Maximum altitude 20:11:57 78° 231° (SW) 1,838 4.3 -30.7°
Enters shadow 20:16:00 47° 155° (SSE) 2,477 4.6 -31.3°
